Time,TemperatureF,DewpointF,PressureIn,WindDirection,WindDirectionDegrees,WindSpeedMPH,WindSpeedGustMPH,Humidity,HourlyPrecipIn,Conditions,Clouds,dailyrainin,SoftwareType,DateUTC
2013-05-14 00:01:00,68.0,55.0,29.88,West,271,0.0,-999.0,64,-99.99,,,-99.99,,2013-05-14 07:01:00,
2013-05-14 00:11:00,68.0,55.0,29.88,West,271,0.0,-999.0,64,-99.99,,,-99.99,,2013-05-14 07:11:00,
2013-05-14 00:21:00,68.0,56.0,29.88,West,271,0.0,-999.0,65,-99.99,,,-99.99,,2013-05-14 07:21:00,
2013-05-14 00:31:00,67.0,56.0,29.88,West,271,0.0,-999.0,67,-99.99,,,-99.99,,2013-05-14 07:31:00,
2013-05-14 00:41:00,67.0,56.0,29.88,West,271,0.0,-999.0,67,-99.99,,,-99.99,,2013-05-14 07:41:00,
2013-05-14 00:52:00,67.0,56.0,29.88,West,271,0.0,-999.0,67,-99.99,,,-99.99,,2013-05-14 07:52:00,
2013-05-14 01:02:00,66.0,55.0,29.88,West,271,0.0,-999.0,68,-99.99,,,-99.99,,2013-05-14 08:02:00,
2013-05-14 01:11:00,66.0,55.0,29.88,West,271,0.0,-999.0,68,-99.99,,,-99.99,,2013-05-14 08:11:00,
2013-05-14 01:21:00,66.0,56.0,29.88,West,271,0.0,-999.0,69,-99.99,,,-99.99,,2013-05-14 08:21:00,
2013-05-14 01:31:00,65.0,55.0,29.88,West,271,0.0,-999.0,70,-99.99,,,-99.99,,2013-05-14 08:31:00,
2013-05-14 01:41:00,65.0,55.0,29.88,West,271,0.0,-999.0,71,-99.99,,,-99.99,,2013-05-14 08:41:00,
2013-05-14 01:52:00,65.0,55.0,29.88,West,271,0.0,-999.0,71,-99.99,,,-99.99,,2013-05-14 08:52:00,
2013-05-14 02:01:00,64.0,55.0,29.87,West,271,0.0,-999.0,72,-99.99,,,-99.99,,2013-05-14 09:01:00,
2013-05-14 02:11:00,64.0,55.0,29.87,West,271,0.0,-999.0,72,-99.99,,,-99.99,,2013-05-14 09:11:00,
2013-05-14 02:21:00,64.0,56.0,29.86,West,271,0.0,-999.0,74,-99.99,,,-99.99,,2013-05-14 09:21:00,
2013-05-14 02:32:00,63.0,54.0,29.87,West,270,0.0,-999.0,73,-99.99,,,-99.99,,2013-05-14 09:32:00,
2013-05-14 02:44:00,63.0,54.0,29.87,West,270,0.0,-999.0,73,-99.99,,,-99.99,,2013-05-14 09:44:00,
2013-05-14 02:54:00,63.0,54.0,29.87,West,270,0.0,-999.0,73,-99.99,,,-99.99,,2013-05-14 09:54:00,
2013-05-14 03:04:00,62.0,54.0,29.86,West,270,0.0,-999.0,74,-99.99,,,-99.99,,2013-05-14 10:04:00,
2013-05-14 03:14:00,62.0,54.0,29.86,West,270,0.0,-999.0,74,-99.99,,,-99.99,,2013-05-14 10:14:00,
2013-05-14 03:25:00,62.0,54.0,29.86,West,270,0.0,-999.0,74,-99.99,,,-99.99,,2013-05-14 10:25:00,
2013-05-14 03:32:00,62.0,54.0,29.86,West,270,0.0,-999.0,75,-99.99,,,-99.99,,2013-05-14 10:32:00,
2013-05-14 03:42:00,62.0,54.0,29.86,West,270,0.0,-999.0,75,-99.99,,,-99.99,,2013-05-14 10:42:00,
2013-05-14 03:52:00,61.0,53.0,29.85,West,270,0.0,-999.0,76,-99.99,,,-99.99,,2013-05-14 10:52:00,
2013-05-14 04:02:00,61.0,54.0,29.84,West,270,0.0,-999.0,77,-99.99,,,-99.99,,2013-05-14 11:02:00,
2013-05-14 04:11:00,61.0,54.0,29.84,West,270,0.0,-999.0,77,-99.99,,,-99.99,,2013-05-14 11:11:00,
2013-05-14 04:21:00,61.0,54.0,29.84,West,270,0.0,-999.0,78,-99.99,,,-99.99,,2013-05-14 11:21:00,
2013-05-14 04:32:00,60.0,53.0,29.84,West,270,0.0,-999.0,79,-99.99,,,-99.99,,2013-05-14 11:32:00,
2013-05-14 04:43:00,60.0,53.0,29.84,West,270,0.0,-999.0,79,-99.99,,,-99.99,,2013-05-14 11:43:00,
2013-05-14 04:52:00,60.0,54.0,29.84,West,270,0.0,-999.0,80,-99.99,,,-99.99,,2013-05-14 11:52:00,
2013-05-14 05:02:00,59.0,53.0,29.84,West,270,0.0,-999.0,81,-99.99,,,-99.99,,2013-05-14 12:02:00,
2013-05-14 05:12:00,59.0,53.0,29.84,West,270,0.0,-999.0,81,-99.99,,,-99.99,,2013-05-14 12:12:00,
2013-05-14 05:21:00,59.0,53.0,29.84,West,270,0.0,-999.0,81,-99.99,,,-99.99,,2013-05-14 12:21:00,
2013-05-14 05:31:00,59.0,53.0,29.84,West,270,0.0,-999.0,81,-99.99,,,-99.99,,2013-05-14 12:31:00,
2013-05-14 05:42:00,59.0,53.0,29.84,West,270,0.0,-999.0,81,-99.99,,,-99.99,,2013-05-14 12:42:00,
2013-05-14 05:52:00,59.0,53.0,29.85,West,270,0.0,-999.0,80,-99.99,,,-99.99,,2013-05-14 12:52:00,
2013-05-14 06:01:00,59.0,53.0,29.85,West,270,0.0,-999.0,80,-99.99,,,-99.99,,2013-05-14 13:01:00,
2013-05-14 06:11:00,59.0,53.0,29.85,West,270,0.0,-999.0,80,-99.99,,,-99.99,,2013-05-14 13:11:00,
2013-05-14 06:22:00,59.0,53.0,29.86,West,270,0.0,-999.0,80,-99.99,,,-99.99,,2013-05-14 13:22:00,
2013-05-14 06:31:00,58.0,52.0,29.86,West,270,0.0,-999.0,80,-99.99,,,-99.99,,2013-05-14 13:31:00,
2013-05-14 06:41:00,58.0,52.0,29.86,West,270,0.0,-999.0,80,-99.99,,,-99.99,,2013-05-14 13:41:00,
2013-05-14 06:52:00,58.0,52.0,29.86,West,270,0.0,-999.0,80,-99.99,,,-99.99,,2013-05-14 13:52:00,
2013-05-14 07:01:00,59.0,53.0,29.86,West,270,0.0,-999.0,80,-99.99,,,-99.99,,2013-05-14 14:01:00,
2013-05-14 07:11:00,60.0,53.0,29.86,West,270,0.0,-999.0,79,-99.99,,,-99.99,,2013-05-14 14:11:00,
2013-05-14 07:22:00,60.0,53.0,29.86,West,270,0.0,-999.0,79,-99.99,,,-99.99,,2013-05-14 14:22:00,
2013-05-14 07:31:00,61.0,53.0,29.86,West,270,0.0,-999.0,76,-99.99,,,-99.99,,2013-05-14 14:31:00,
2013-05-14 07:41:00,61.0,53.0,29.86,West,270,0.0,-999.0,76,-99.99,,,-99.99,,2013-05-14 14:41:00,
2013-05-14 07:52:00,63.0,55.0,29.86,West,270,0.0,-999.0,74,-99.99,,,-99.99,,2013-05-14 14:52:00,
2013-05-14 08:01:00,63.0,54.0,29.87,West,270,0.0,-999.0,72,-99.99,,,-99.99,,2013-05-14 15:01:00,
2013-05-14 08:11:00,63.0,54.0,29.87,West,270,0.0,-999.0,72,-99.99,,,-99.99,,2013-05-14 15:11:00,
2013-05-14 08:21:00,65.0,55.0,29.87,West,270,0.0,-999.0,71,-99.99,,,-99.99,,2013-05-14 15:21:00,
2013-05-14 08:32:00,66.0,55.0,29.87,SE,130,1.0,-999.0,67,-99.99,,,-99.99,,2013-05-14 15:32:00,
2013-05-14 08:42:00,67.0,55.0,29.87,ESE,107,1.0,-999.0,65,-99.99,,,-99.99,,2013-05-14 15:42:00,
2013-05-14 08:53:00,67.0,55.0,29.87,ESE,107,1.0,-999.0,65,-99.99,,,-99.99,,2013-05-14 15:53:00,
2013-05-14 09:02:00,68.0,56.0,29.87,ESE,102,0.0,-999.0,66,-99.99,,,-99.99,,2013-05-14 16:02:00,
2013-05-14 09:12:00,68.0,56.0,29.87,ESE,102,0.0,-999.0,66,-99.99,,,-99.99,,2013-05-14 16:12:00,
2013-05-14 09:23:00,68.0,55.0,29.87,East,98,1.0,-999.0,64,-99.99,,,-99.99,,2013-05-14 16:23:00,
2013-05-14 09:33:00,70.0,56.0,29.87,ESE,115,0.0,-999.0,62,-99.99,,,-99.99,,2013-05-14 16:33:00,
2013-05-14 09:43:00,70.0,56.0,29.87,ESE,115,0.0,-999.0,62,-99.99,,,-99.99,,2013-05-14 16:43:00,
2013-05-14 09:54:00,71.0,56.0,29.87,East,84,1.0,-999.0,60,-99.99,,,-99.99,,2013-05-14 16:54:00,
2013-05-14 10:03:00,72.0,56.0,29.87,East,94,0.0,-999.0,58,-99.99,,,-99.99,,2013-05-14 17:03:00,
2013-05-14 10:13:00,72.0,56.0,29.87,East,94,0.0,-999.0,58,-99.99,,,-99.99,,2013-05-14 17:13:00,
2013-05-14 10:24:00,73.0,57.0,29.88,SE,129,0.0,-999.0,57,-99.99,,,-99.99,,2013-05-14 17:24:00,
2013-05-14 10:32:00,74.0,56.0,29.88,SE,128,0.0,-999.0,53,-99.99,,,-99.99,,2013-05-14 17:32:00,
2013-05-14 10:43:00,74.0,56.0,29.88,SE,128,0.0,-999.0,53,-99.99,,,-99.99,,2013-05-14 17:43:00,
2013-05-14 10:52:00,75.0,57.0,29.88,SE,128,0.0,-999.0,53,-99.99,,,-99.99,,2013-05-14 17:52:00,
2013-05-14 11:01:00,76.0,57.0,29.88,SSE,149,1.0,-999.0,52,-99.99,,,-99.99,,2013-05-14 18:01:00,
2013-05-14 11:12:00,76.0,57.0,29.88,SSE,149,1.0,-999.0,52,-99.99,,,-99.99,,2013-05-14 18:12:00,
2013-05-14 11:22:00,76.0,57.0,29.88,SSE,149,1.0,-999.0,52,-99.99,,,-99.99,,2013-05-14 18:22:00,
2013-05-14 11:31:00,77.0,56.0,29.88,WSW,257,1.0,-999.0,49,-99.99,,,-99.99,,2013-05-14 18:31:00,
2013-05-14 11:42:00,77.0,56.0,29.88,WSW,257,1.0,-999.0,49,-99.99,,,-99.99,,2013-05-14 18:42:00,
2013-05-14 11:52:00,77.0,56.0,29.88,WSW,257,0.0,-999.0,48,-99.99,,,-99.99,,2013-05-14 18:52:00,
2013-05-14 12:01:00,78.0,56.0,29.88,SE,124,1.0,-999.0,47,-99.99,,,-99.99,,2013-05-14 19:01:00,
2013-05-14 12:11:00,78.0,56.0,29.88,SE,124,1.0,-999.0,47,-99.99,,,-99.99,,2013-05-14 19:11:00,
2013-05-14 12:21:00,79.0,56.0,29.88,WSW,250,1.0,-999.0,46,-99.99,,,-99.99,,2013-05-14 19:21:00,
2013-05-14 12:31:00,81.0,58.0,29.88,WSW,251,1.0,-999.0,46,-99.99,,,-99.99,,2013-05-14 19:31:00,
2013-05-14 12:42:00,81.0,58.0,29.88,WSW,251,1.0,-999.0,46,-99.99,,,-99.99,,2013-05-14 19:42:00,
2013-05-14 12:52:00,82.0,57.0,29.87,WNW,288,1.0,-999.0,42,-99.99,,,-99.99,,2013-05-14 19:52:00,
2013-05-14 13:02:00,83.0,58.0,29.87,NW,315,1.0,-999.0,42,-99.99,,,-99.99,,2013-05-14 20:02:00,
2013-05-14 13:11:00,83.0,58.0,29.87,NW,315,1.0,-999.0,42,-99.99,,,-99.99,,2013-05-14 20:11:00,
2013-05-14 13:22:00,84.0,57.0,29.86,NNE,28,1.0,-999.0,40,-99.99,,,-99.99,,2013-05-14 20:22:00,
2013-05-14 13:32:00,84.0,58.0,29.86,WSW,241,0.0,-999.0,42,-99.99,,,-99.99,,2013-05-14 20:32:00,
2013-05-14 13:44:00,84.0,58.0,29.86,WSW,241,0.0,-999.0,42,-99.99,,,-99.99,,2013-05-14 20:44:00,
2013-05-14 13:51:00,84.0,58.0,29.85,WSW,248,1.0,-999.0,41,-99.99,,,-99.99,,2013-05-14 20:51:00,
2013-05-14 14:03:00,85.0,59.0,29.85,NW,317,1.0,-999.0,41,-99.99,,,-99.99,,2013-05-14 21:03:00,
2013-05-14 14:12:00,85.0,59.0,29.85,NW,317,1.0,-999.0,41,-99.99,,,-99.99,,2013-05-14 21:12:00,
2013-05-14 14:22:00,85.0,59.0,29.85,West,260,1.0,-999.0,41,-99.99,,,-99.99,,2013-05-14 21:22:00,
2013-05-14 14:33:00,85.0,58.0,29.85,WSW,250,1.0,-999.0,40,-99.99,,,-99.99,,2013-05-14 21:33:00,
2013-05-14 14:42:00,85.0,58.0,29.85,WSW,250,1.0,-999.0,40,-99.99,,,-99.99,,2013-05-14 21:42:00,
2013-05-14 14:52:00,85.0,57.0,29.84,SW,229,0.0,-999.0,39,-99.99,,,-99.99,,2013-05-14 21:52:00,
2013-05-14 15:03:00,86.0,58.0,29.84,SW,221,1.0,-999.0,39,-99.99,,,-99.99,,2013-05-14 22:03:00,
2013-05-14 15:13:00,86.0,58.0,29.84,SW,221,1.0,-999.0,39,-99.99,,,-99.99,,2013-05-14 22:13:00,
2013-05-14 15:24:00,86.0,57.0,29.84,SW,215,0.0,-999.0,38,-99.99,,,-99.99,,2013-05-14 22:24:00,
2013-05-14 15:34:00,86.0,58.0,29.84,SSE,157,1.0,-999.0,39,-99.99,,,-99.99,,2013-05-14 22:34:00,
2013-05-14 15:45:00,86.0,58.0,29.84,SSE,157,1.0,-999.0,39,-99.99,,,-99.99,,2013-05-14 22:45:00,
2013-05-14 15:54:00,87.0,58.0,29.84,SE,140,1.0,-999.0,37,-99.99,,,-99.99,,2013-05-14 22:54:00,
2013-05-14 16:03:00,87.0,56.0,29.84,SSE,154,0.0,-999.0,35,-99.99,,,-99.99,,2013-05-14 23:03:00,
2013-05-14 16:12:00,87.0,56.0,29.84,SSE,154,0.0,-999.0,35,-99.99,,,-99.99,,2013-05-14 23:12:00,
2013-05-14 16:21:00,87.0,56.0,29.84,SSE,165,0.0,-999.0,35,-99.99,,,-99.99,,2013-05-14 23:21:00,
2013-05-14 16:31:00,88.0,56.0,29.84,SSW,192,1.0,-999.0,34,-99.99,,,-99.99,,2013-05-14 23:31:00,
2013-05-14 16:44:00,88.0,56.0,29.84,SSW,192,1.0,-999.0,34,-99.99,,,-99.99,,2013-05-14 23:44:00,
2013-05-14 16:52:00,88.0,56.0,29.84,South,190,1.0,-999.0,34,-99.99,,,-99.99,,2013-05-14 23:52:00,
2013-05-14 17:01:00,88.0,57.0,29.84,ESE,121,1.0,-999.0,35,-99.99,,,-99.99,,2013-05-15 00:01:00,
2013-05-14 17:11:00,88.0,57.0,29.84,ESE,121,1.0,-999.0,35,-99.99,,,-99.99,,2013-05-15 00:11:00,
2013-05-14 17:21:00,88.0,57.0,29.83,South,176,1.0,-999.0,35,-99.99,,,-99.99,,2013-05-15 00:21:00,
2013-05-14 17:32:00,88.0,58.0,29.83,SSW,208,1.0,-999.0,36,-99.99,,,-99.99,,2013-05-15 00:32:00,
2013-05-14 17:41:00,88.0,58.0,29.83,SSW,208,1.0,-999.0,36,-99.99,,,-99.99,,2013-05-15 00:41:00,
2013-05-14 17:51:00,87.0,57.0,29.82,SSW,211,1.0,-999.0,36,-99.99,,,-99.99,,2013-05-15 00:51:00,
2013-05-14 18:01:00,87.0,56.0,29.83,SSW,202,1.0,-999.0,35,-99.99,,,-99.99,,2013-05-15 01:01:00,
2013-05-14 18:11:00,87.0,56.0,29.83,SSW,202,1.0,-999.0,35,-99.99,,,-99.99,,2013-05-15 01:11:00,
2013-05-14 18:21:00,86.0,55.0,29.83,SW,220,1.0,-999.0,35,-99.99,,,-99.99,,2013-05-15 01:21:00,
2013-05-14 18:31:00,84.0,53.0,29.83,SW,218,1.0,-999.0,35,-99.99,,,-99.99,,2013-05-15 01:31:00,
2013-05-14 18:42:00,84.0,53.0,29.83,SW,218,1.0,-999.0,35,-99.99,,,-99.99,,2013-05-15 01:42:00,
2013-05-14 18:51:00,82.0,52.0,29.83,WSW,244,1.0,-999.0,36,-99.99,,,-99.99,,2013-05-15 01:51:00,
2013-05-14 19:01:00,82.0,53.0,29.83,WSW,240,1.0,-999.0,37,-99.99,,,-99.99,,2013-05-15 02:01:00,
2013-05-14 19:11:00,82.0,53.0,29.83,WSW,240,1.0,-999.0,37,-99.99,,,-99.99,,2013-05-15 02:11:00,
2013-05-14 19:21:00,81.0,53.0,29.82,SW,218,1.0,-999.0,38,-99.99,,,-99.99,,2013-05-15 02:21:00,
2013-05-14 19:31:00,80.0,52.0,29.83,SSW,200,1.0,-999.0,38,-99.99,,,-99.99,,2013-05-15 02:31:00,
2013-05-14 19:42:00,80.0,52.0,29.83,SSW,200,1.0,-999.0,38,-99.99,,,-99.99,,2013-05-15 02:42:00,
2013-05-14 19:51:00,79.0,52.0,29.82,SW,214,2.0,-999.0,39,-99.99,,,-99.99,,2013-05-15 02:51:00,
2013-05-14 20:01:00,78.0,52.0,29.82,SW,235,1.0,-999.0,40,-99.99,,,-99.99,,2013-05-15 03:01:00,
2013-05-14 20:12:00,78.0,52.0,29.82,SW,235,1.0,-999.0,40,-99.99,,,-99.99,,2013-05-15 03:12:00,
2013-05-14 20:21:00,77.0,51.0,29.83,WSW,252,1.0,-999.0,41,-99.99,,,-99.99,,2013-05-15 03:21:00,
2013-05-14 20:33:00,76.0,52.0,29.83,West,275,0.0,-999.0,43,-99.99,,,-99.99,,2013-05-15 03:33:00,
2013-05-14 20:44:00,75.0,52.0,29.83,West,272,0.0,-999.0,45,-99.99,,,-99.99,,2013-05-15 03:44:00,
2013-05-14 20:53:00,75.0,52.0,29.83,West,272,0.0,-999.0,45,-99.99,,,-99.99,,2013-05-15 03:53:00,
2013-05-14 21:03:00,74.0,52.0,29.84,WSW,254,0.0,-999.0,46,-99.99,,,-99.99,,2013-05-15 04:03:00,
2013-05-14 21:12:00,74.0,52.0,29.84,WSW,254,0.0,-999.0,46,-99.99,,,-99.99,,2013-05-15 04:12:00,
2013-05-14 21:23:00,73.0,52.0,29.85,WSW,254,0.0,-999.0,48,-99.99,,,-99.99,,2013-05-15 04:23:00,
2013-05-14 21:33:00,73.0,52.0,29.85,WSW,243,0.0,-999.0,48,-99.99,,,-99.99,,2013-05-15 04:33:00,
2013-05-14 21:42:00,73.0,52.0,29.85,WSW,243,0.0,-999.0,48,-99.99,,,-99.99,,2013-05-15 04:42:00,
2013-05-14 21:52:00,72.0,52.0,29.86,WSW,257,0.0,-999.0,49,-99.99,,,-99.99,,2013-05-15 04:52:00,
2013-05-14 22:02:00,71.0,51.0,29.86,SSW,197,0.0,-999.0,50,-99.99,,,-99.99,,2013-05-15 05:02:00,
2013-05-14 22:12:00,71.0,51.0,29.86,SSW,197,0.0,-999.0,50,-99.99,,,-99.99,,2013-05-15 05:12:00,
2013-05-14 22:22:00,70.0,51.0,29.87,SSW,197,0.0,-999.0,51,-99.99,,,-99.99,,2013-05-15 05:22:00,
2013-05-14 22:32:00,69.0,50.0,29.88,ESE,115,1.0,-999.0,51,-99.99,,,-99.99,,2013-05-15 05:32:00,
2013-05-14 22:42:00,69.0,50.0,29.88,ESE,115,1.0,-999.0,51,-99.99,,,-99.99,,2013-05-15 05:42:00,
2013-05-14 22:52:00,69.0,51.0,29.88,ESE,118,0.0,-999.0,52,-99.99,,,-99.99,,2013-05-15 05:52:00,
2013-05-14 23:02:00,68.0,51.0,29.88,ESE,122,0.0,-999.0,54,-99.99,,,-99.99,,2013-05-15 06:02:00,
2013-05-14 23:11:00,68.0,51.0,29.88,ESE,122,0.0,-999.0,54,-99.99,,,-99.99,,2013-05-15 06:11:00,
2013-05-14 23:21:00,67.0,50.0,29.89,SE,142,0.0,-999.0,54,-99.99,,,-99.99,,2013-05-15 06:21:00,
2013-05-14 23:31:00,66.0,49.0,29.89,SSE,156,0.0,-999.0,55,-99.99,,,-99.99,,2013-05-15 06:31:00,
2013-05-14 23:41:00,66.0,49.0,29.89,SSE,156,0.0,-999.0,55,-99.99,,,-99.99,,2013-05-15 06:41:00,
2013-05-14 23:51:00,65.0,49.0,29.89,SE,144,0.0,-999.0,56,-99.99,,,-99.99,,2013-05-15 06:51:00,